Location: Düngen
(52.0952°N, 10.0219°E)
Time: 09:27:42
(UTC+00:00)

Cosmos 2278 Rocket - Visible Passes

Search period start: 09 June 2026 00:00
Search period end: 19 June 2026 00:00
Orbit: 840 x 845 km, 71.0° (Epoch: 8 June)

Date Brightness Start Highest point End Pass type
(mag) Time Alt. Az. Time Alt. Az. Time Alt. Az.
9 Jun 3.9 01:23:41 10° W 01:28:29 27° NW 01:33:17 10° NNE visible
9 Jun 4.0 21:43:06 11° SE 21:45:42 15° E 21:48:51 10° ENE visible
9 Jun 2.2 23:24:53 21° SSW 23:28:50 78° ESE 23:34:31 10° NNE visible
10 Jun 3.8 01:08:41 10° W 01:13:31 28° NW 01:18:22 10° NNE visible
10 Jun 4.0 21:28:07 11° SE 21:30:49 15° E 21:33:48 10° ENE visible
10 Jun 2.2 23:09:54 20° SSW 23:13:55 76° ESE 23:19:37 10° NNE visible
11 Jun 3.8 00:53:42 10° W 00:58:34 29° NW 01:03:28 10° NNE visible
11 Jun 4.0 21:13:10 10° SE 21:15:57 14° E 21:18:43 10° ENE visible
11 Jun 2.2 22:54:52 19° SSW 22:59:00 73° ESE 23:04:41 10° NNE visible
12 Jun 3.8 00:38:42 10° WSW 00:43:37 29° NW 00:48:33 10° NNE visible
12 Jun 4.1 20:58:31 10° ESE 21:01:04 13° E 21:03:38 10° ENE visible
12 Jun 2.2 22:39:46 17° SSW 22:44:06 70° ESE 22:49:45 10° NE visible
13 Jun 3.8 00:23:42 10° WSW 00:28:40 30° NW 00:33:39 10° NNE visible
13 Jun 4.7 02:12:07 10° NW 02:14:42 13° NNW 02:17:17 10° NNE visible
13 Jun 4.1 20:43:53 10° ESE 20:46:12 13° E 20:48:31 10° ENE visible
13 Jun 2.2 22:24:36 16° SSW 22:29:11 67° ESE 22:34:49 10° NE visible
14 Jun 3.8 00:08:42 10° WSW 00:13:43 31° NW 00:18:44 10° NNE visible
14 Jun 4.8 01:57:04 10° NW 01:59:43 13° NNW 02:02:22 10° NNE visible
14 Jun 4.1 20:29:18 10° ESE 20:31:20 12° E 20:33:21 10° ENE visible
14 Jun 2.2 22:09:20 13° SSW 22:14:16 64° ESE 22:19:54 10° NE visible
14 Jun 3.8 23:53:42 10° WSW 23:58:46 32° NW 00:03:50 10° NNE visible
15 Jun 4.8 01:42:00 10° NW 01:44:44 13° NNW 01:47:27 10° NNE visible
15 Jun 2.3 21:53:59 11° SSW 21:59:21 62° ESE 22:04:57 10° NE visible
15 Jun 3.7 23:38:43 10° WSW 23:43:49 33° NW 23:48:55 10° NNE visible
16 Jun 4.8 01:26:57 10° NW 01:29:44 14° NNW 01:32:32 10° NNE visible
16 Jun 2.3 21:38:54 10° SSW 21:44:27 59° ESE 21:50:01 10° NE visible
16 Jun 3.7 23:23:43 10° WSW 23:28:51 34° NW 23:34:01 10° NNE visible
17 Jun 4.8 01:11:54 10° NW 01:14:45 14° NNW 01:17:37 10° NNE visible
17 Jun 2.3 21:24:01 10° S 21:29:32 57° ESE 21:35:05 10° NE visible
17 Jun 3.7 23:08:44 10° WSW 23:13:54 35° NW 23:19:06 10° NNE visible
18 Jun 4.9 00:56:51 10° NW 00:59:46 14° NNW 01:02:42 10° NNE visible
18 Jun 2.4 21:09:08 10° S 21:14:37 54° ESE 21:20:09 10° NE visible
18 Jun 3.7 22:53:45 10° WSW 22:58:57 36° NW 23:04:11 10° NNE visible
